星链-32222 (STARLINK-32222)

导读

STARLINK-32222是美国SpaceX公司星链星座的一员,于2024年8月12日发射。星链星座旨在构建全球低轨卫星互联网,为偏远地区、基础设施缺失区域提供高速宽带服务,可实现50Mbps到100Mbps以上下载速度,低至20-40毫秒延迟,适配视频通话、在线游戏等场景。该卫星入轨后将扩充星链网络规模,进一步完善全球覆盖能力,推动天地一体化网络建设,支撑全球互联的通信需求,是星链星座扩容组网的重要组成部分。

Basic Information
目录编号:
60435
目录名称:
STARLINK-32222
国际标识:
2024-144L
轨道中心:
EARTH
卫星名称:
星链-32222 (STARLINK-32222)
卫星全名:
星链-32222 (STARLINK-32222)
卫星状态:
在轨 (已飞行753 天)
发射日期:
2024-08-12 UTC
国别 :
美国 (US)
星等 :
--
Orbit Information
数据来源 国际轨道数据 AOE轨道数据
星历时间 2026-09-03T05:14:22+0800
1天前
查看轨道信息
2026-08-29T23:00:00+0800
5天前
查看轨道信息
半长轴 6840.869km 6840.845km
偏心率 0.0001246 0.0001225
轨道倾角 53.161° 53.159°
近地点辐角 81.334° 77.938°
升交点赤经 110.176° 130.091°
平近点角 278.780° 137.729°
近地点 461.879km 461.869km
远地点 463.585km 463.547km
周期 93.848分钟 93.848分钟
每日圈数 15.343906 15.343984
Detailed Information
卫星平台:
Starlink v2.0 mini
运营商:
太空探索技术公司
运营商所在国:
美国
制造商(研发单位):
太空探索技术公司
制造商所在国:
美国
使用方式:
暂无
Satellite Introduction
星链(Starlink)计划是由太空探索技术公司(SpaceX)提出的一个巨型低轨卫星互联网星座项目,计划在2019年至2024年间在太空搭建由约1.2万颗卫星组成的“星链”网络,其中1584颗将部署在地球上空550千米处的近地轨道,并从2020年开始工作。该卫星仍在工作。
2D Orbit Map
3D Orbit Map
Orbit Altitude Analysis Chart
Orbit Inclination Analysis Chart
Orbit Comprehensive Analysis Chart
View Comprehensive Chart